Ontario, OR

6:11 AM MDT on August 17, 2017 (GMT -0600)
Ontario Municipal

Weather History for KONO - February, 2013

Change the Weather History Date:

Wednesday, February 27, 2013

  Actual Average Record
Temperature  
Mean Temperature 35 °F 38 °F  
Max Temperature 48 °F 49 °F 65 °F (1968)
Min Temperature 21 °F 26 °F 0 °F (1993)
Degree Days  
Heating Degree Days 30 27  
Month to date heating degree days 771 859  
Since 1 July heating degree days 4486 4602  
Cooling Degree Days 0 0  
Month to date cooling degree days 0 0  
Year to date cooling degree days 0 0  
Moisture  
Dew Point 23 °F    
Average Humidity 64    
Maximum Humidity 88    
Minimum Humidity 39    
Precipitation  
Precipitation 0.00 in 0.03 in 0.52 in (2000)
Month to date precipitation 0.38 0.77  
Year to date precipitation 0.92 1.95  
Sea Level Pressure  
Sea Level Pressure 30.44 in    
Wind  
Wind Speed 3 mph (NE)    
Max Wind Speed 10 mph    
Max Gust Speed 20 mph    
Visibility 10 miles    
Events      
T = Trace of Precipitation, MM = Missing Value Source: NWS Daily Summary

Daily Weather History Graph

Daily Weather History Graph

Search for Another Location

Airport or City:

Trip Planner

Search our weather history database for the weather conditions in past years. The results will help you decide how hot, cold, wet, or windy it might be!

Date:

Astronomy

Feb. 27, 2013 Rise Set
Actual Time 7:27 AM MST 6:34 PM MST
Civil Twilight 6:58 AM MST 7:03 PM MST
Nautical Twilight 6:25 AM MST 7:36 PM MST
Astronomical Twilight 5:51 AM MST 8:10 PM MST
Moon 9:07 PM MST (2/27) 7:59 AM MST (2/27)
Length of Visible Light 12h 04m
Length of Day
11h 06m
Waning Gibbous, 96% of the Moon is Illuminated
Feb 27
Waning Gibbous
Mar 4
Last Quarter
Mar 11
New
Mar 19
First Quarter
Mar 27
Full

Hourly Weather History & Observations

Time (MST) Temp. Windchill Dew Point Humidity Pressure Visibility Wind Dir Wind Speed Gust Speed Precip Events Conditions
1:53 AM 30.0 °F 25.2 °F 21.9 °F 72% 30.42 in 10.0 mi NNE 4.6 mph - N/A   Clear
2:53 AM 28.0 °F - 21.9 °F 78% 30.42 in 10.0 mi Calm Calm - N/A   Clear
3:53 AM 28.9 °F - 21.9 °F 75% 30.42 in 10.0 mi Calm Calm - N/A   Clear
4:53 AM 26.1 °F - 21.9 °F 84% 30.42 in 10.0 mi Calm Calm - N/A   Scattered Clouds
5:53 AM 24.1 °F 19.7 °F 19.9 °F 84% 30.45 in 10.0 mi WSW 3.5 mph - N/A   Scattered Clouds
6:53 AM 26.1 °F - 21.0 °F 81% 30.45 in 10.0 mi Calm Calm - N/A   Clear
7:53 AM 23.0 °F - 19.0 °F 85% 30.48 in 10.0 mi Calm Calm - N/A   Scattered Clouds
8:53 AM 28.0 °F - 23.0 °F 81% 30.50 in 5.0 mi Calm Calm - N/A   Haze
10:53 AM 37.9 °F 31.5 °F 24.1 °F 57% 30.50 in 10.0 mi SSE 9.2 mph - N/A   Partly Cloudy
11:53 AM 41.0 °F 38.0 °F 24.1 °F 51% 30.49 in 10.0 mi East 4.6 mph - N/A   Clear
12:53 PM 44.1 °F 40.1 °F 24.1 °F 45% 30.48 in 10.0 mi East 6.9 mph - N/A   Clear
1:53 PM 44.1 °F - 24.1 °F 45% 30.45 in 10.0 mi Calm Calm - N/A   Clear
2:53 PM 46.0 °F 44.8 °F 25.0 °F 44% 30.42 in 10.0 mi ESE 3.5 mph - N/A   Clear
3:53 PM 48.0 °F - 25.0 °F 41% 30.39 in 10.0 mi NE 6.9 mph - N/A   Clear
4:53 PM 46.9 °F - 26.1 °F 44% 30.41 in 10.0 mi North 6.9 mph - N/A   Clear
5:53 PM 46.0 °F 42.5 °F 26.1 °F 46% 30.40 in 10.0 mi NNE 6.9 mph - N/A   Partly Cloudy
6:53 PM 39.9 °F 35.8 °F 25.0 °F 55% 30.41 in 10.0 mi North 5.8 mph - N/A   Partly Cloudy
7:53 PM 36.0 °F 32.1 °F 24.1 °F 62% 30.42 in 10.0 mi North 4.6 mph - N/A   Mostly Cloudy
8:53 PM 34.0 °F 31.0 °F 24.1 °F 67% 30.42 in 10.0 mi North 3.5 mph - N/A   Clear
9:53 PM 28.0 °F - 21.9 °F 78% 30.43 in 10.0 mi Calm Calm - N/A   Clear
10:53 PM 32.0 °F - 25.0 °F 75% 30.42 in 10.0 mi Calm Calm - N/A   Overcast
11:53 PM 33.1 °F - 25.0 °F 72% 30.39 in 10.0 mi Calm Calm - N/A   Mostly Cloudy